STARLINK-34640, 65092

Orbit data source: Space-Track

STARLINK-34640, 65092 is a payload satellite owned by SpaceX/Seattle (US) in LEO that was launched on Mon, 04 Aug 2025 UTC via an FALCON 9 launch vehicle from the Air Force Eastern Test Range (AFETR). Payload-class satellites include a variety of spacecraft equipped with specific instruments for various scientific and technological missions. These include communications satellites like Starlink; space stations such as the ISS; scientific satellites like the Hubble; Earth observation satellites from companies like Planet Labs, Umbra, and HawkEye 360; GPS; miniature CubeSats for education and research; and military/defense satellites.

Loading next visibility...
Identifier
65092, 2025-167Q
Orbit
LEO
Country
Flag of USUS
Related business
Manufacturer
SpaceX/Seattle
Mission
Operational Commercial Communications
Bus & Motor
STARLINK V2MO, Unknown motor
Mass
575 kg wet, ~530 kg dry
Launch date (UTC)
2025-08-04 (11 months ago)
Launch vehicle
FALCON 9
Launch site
Air Force Eastern Test Range (AFETR)
Object type
Payload
Rocket body
Debris
Shape & HBR
Box + 2 Pan, 17.7 m
Radar Cross Section
36.964 m², Large (>1 m²)

Expand to show TLE details & history
Last TLE update: 15 hours ago

TLE from 15 hours ago
0 STARLINK-34640
1 65092U 25167Q   26174.60645650  .00011632  00000-0  40409-3 0  9998
2 65092  53.1593 254.8651 0001122  75.9604 284.1522 15.30211105 49699
Epoch: 2026-06-23T14:33Z
TLE epoch observation values (Epoch: 2026-06-23T14:33:17.841Z)
Latitude
0.00002°
Longitude
124.76517°
Altitude
475.894 km
Speed
7.629 km/s
True Right ascension
16h 59m 27s
True Declination
0° 00' 00"
Sunlit
Object was in full shadow at epoch
Visualization orbit readout
Latitude
Unknown
Longitude
Unknown
Altitude
Unknown
Speed
Unknown
Apparent Right ascension
Unknown
Apparent Declination
Unknown
Sunlit
N/A
Visualization observer readout
Local Sidereal Time
16:39:30
Azimuth
Unknown
Elevation
Unknown
Doppler factor
Unknown
Orbital elements
Apogee altitude
476.207 km
Perigee altitude
474.669 km
Semi-major axis
6,853.575 km
Eccentricity
0.00011
Inclination
53.1593°
RAAN
254.8651°
Arg. of periapsis
75.9604°
True anomaly
284.13973°
Mean anomaly
284.1522°
Eccentric anomaly
284.14597°
Mean motion
3.82532 °/min
Orbital period
94.11 mins
BSTAR
0.00040409
Loading maneuver chart data...
Computing Atmospheric mass density...
Loading historical data...
Loading historical data...
Loading historical data...
Loading historical data...
Loading historical data...
Loading historical data...
Loading historical data...

Documentation

Showing up to 5 results
|